User: anonymous   Login
Location: Boiro
(42.6475°N, 8.8834°W)
Time: 21:35:38
(UTC+01:00)
Language:

MOZHAYETS 4 - Orbit

View from above orbital plane
View from above orbital plane
View from above satellite
View from above satellite

Ground track
Ground track

The orbit data is extracted from the following two-line orbital elements,

1 27939U 03042A   22019.59278820  .00000559  00000-0  10831-3 0  9999
2 27939  98.1676 160.5924 0011966 322.4257  37.6115 14.67108376979218
Epoch (UTC): 19 January 2022 14:13:36
Eccentricity: 0.0011966
inclination: 98.1676°
perigee height: 662 km
apogee height: 679 km
right ascension of ascending node: 160.5924°
argument of perigee: 322.4257°
revolutions per day: 14.67108376
mean anomaly at epoch: 37.6115°
orbit number at epoch: 97921

The dashed part of the orbit path shows where the satellite is in the earth's shadow,  

DLR